Torna al catalogo

STARLINK-37139

AttivoComunicazioniSSO
NORAD 68317·PAYLOAD·🇺🇸 United States

Lanciato Mar 20, 2026 da Vandenberg Space Force Base

Loading…

Prossimi Passaggi (prossime 24 ore)

TLE

AggiornatoSource: CelesTrak SupGP

Epoca: Sep 14, 2026, 23:06 UTC

1 68317C 26057Z   26257.96298611 -.00035642  00000+0 -11060-2 0  2577
2 68317  97.2861  23.4229 0001221  87.8624 276.2055 15.33470587    14

Traccia STARLINK-37139 in tempo reale con AllMySat

Download on the App Store